THY2RC LROP-LTFM

Flight info

Callsign THY2RC
Flight time 0h 54m
Altitude 39000
Route IDARU DCT NONQE DCT MAXOV DCT MATEL L620 RIXEN
Aircraft B77W/H-SDE1E2E3FGHIJ2J3J4J5M1RWXY/LB1D1

Departure

Time 2026-05-05 00:14
Airport Bucharest Henri Coandă International Airport (LROP)

Arrival

Time 2026-05-05 01:08
Airport İstanbul Airport (LTFM)
Time Latitude Longitude Altitude Speed Heading
2026-05-04 23:54 44.57238 26.07933 323 ft 0 kts 354°
2026-05-05 00:00 44.57230 26.07934 327 ft 2 kts 356°
2026-05-05 00:00 44.57218 26.07935 323 ft 2 kts
2026-05-05 00:00 44.57208 26.07934 326 ft 2 kts
2026-05-05 00:01 44.57190 26.07913 325 ft 0 kts 82°
2026-05-05 00:04 44.57190 26.07912 325 ft 0 kts 82°
2026-05-05 00:07 44.57190 26.07913 325 ft 0 kts 82°
2026-05-05 00:09 44.57191 26.07918 327 ft 0 kts 84°
2026-05-05 00:09 44.57198 26.08018 325 ft 15 kts 84°
2026-05-05 00:09 44.57209 26.08166 323 ft 15 kts 83°
2026-05-05 00:10 44.57220 26.08310 324 ft 15 kts 84°
2026-05-05 00:10 44.57230 26.08458 324 ft 13 kts 92°
2026-05-05 00:10 44.57144 26.08517 323 ft 20 kts 172°
2026-05-05 00:10 44.57002 26.08540 321 ft 21 kts 174°
2026-05-05 00:11 44.56892 26.08466 322 ft 20 kts 258°
2026-05-05 00:11 44.56837 26.08281 324 ft 21 kts 243°
2026-05-05 00:11 44.56775 26.08100 323 ft 21 kts 251°
2026-05-05 00:11 44.56736 26.07907 325 ft 21 kts 255°
2026-05-05 00:12 44.56696 26.07713 321 ft 20 kts 246°
2026-05-05 00:12 44.56608 26.07675 322 ft 0 kts 178°
2026-05-05 00:12 44.56545 26.07680 321 ft 16 kts 176°
2026-05-05 00:12 44.56471 26.07765 326 ft 16 kts 88°
2026-05-05 00:13 44.56479 26.07873 326 ft 0 kts 84°
2026-05-05 00:14 44.56481 26.07890 327 ft 12 kts 84°
2026-05-05 00:14 44.56518 26.08376 325 ft 98 kts 84°
2026-05-05 00:14 44.56621 26.09745 332 ft 180 kts 83°
2026-05-05 00:14 44.56746 26.11611 1000 ft 195 kts 84°
2026-05-05 00:15 44.56867 26.13442 2171 ft 187 kts 82°
2026-05-05 00:15 44.57003 26.15342 2770 ft 207 kts 82°
2026-05-05 00:15 44.57165 26.17519 3020 ft 241 kts 82°
2026-05-05 00:15 44.57346 26.19968 3605 ft 258 kts 82°
2026-05-05 00:16 44.57531 26.22486 4603 ft 260 kts 81°
2026-05-05 00:16 44.57716 26.25007 5667 ft 259 kts 81°
2026-05-05 00:16 44.57901 26.27524 6724 ft 258 kts 80°
2026-05-05 00:16 44.58086 26.30023 7742 ft 257 kts 79°
2026-05-05 00:17 44.58272 26.32529 8700 ft 259 kts 79°
2026-05-05 00:17 44.58459 26.35046 9685 ft 260 kts 78°
2026-05-05 00:17 44.58649 26.37587 10514 ft 266 kts 78°
2026-05-05 00:17 44.58855 26.40279 10857 ft 292 kts 79°
2026-05-05 00:18 44.59083 26.43259 11096 ft 322 kts 79°
2026-05-05 00:18 44.59328 26.46516 11457 ft 346 kts 80°
2026-05-05 00:18 44.59577 26.49938 12258 ft 358 kts 81°
2026-05-05 00:18 44.59830 26.53461 13264 ft 366 kts 81°
2026-05-05 00:19 44.60083 26.57000 14301 ft 371 kts 81°
2026-05-05 00:19 44.60342 26.60619 15343 ft 375 kts 81°
2026-05-05 00:19 44.60606 26.64297 16257 ft 383 kts 81°
2026-05-05 00:19 44.60876 26.68065 17126 ft 392 kts 81°
2026-05-05 00:20 44.61151 26.71904 18003 ft 399 kts 81°
2026-05-05 00:20 44.61430 26.75815 18828 ft 406 kts 81°
2026-05-05 00:20 44.61620 26.78500 19387 ft 410 kts 81°
2026-05-05 00:20 44.61856 26.82496 20124 ft 413 kts 86°
2026-05-05 00:21 44.61345 26.86482 20680 ft 432 kts 109°
2026-05-05 00:21 44.59790 26.90142 21445 ft 444 kts 127°
2026-05-05 00:21 44.57464 26.93027 22242 ft 448 kts 143°
2026-05-05 00:21 44.54859 26.95526 22838 ft 458 kts 143°
2026-05-05 00:22 44.52227 26.98094 23523 ft 464 kts 143°
2026-05-05 00:22 44.46129 27.04202 25092 ft 471 kts 143°
2026-05-05 00:22 44.43467 27.06911 25695 ft 476 kts 143°
2026-05-05 00:23 44.40771 27.09665 26260 ft 481 kts 143°
2026-05-05 00:23 44.38056 27.12442 26812 ft 486 kts 143°
2026-05-05 00:23 44.35314 27.15243 27366 ft 491 kts 144°
2026-05-05 00:23 44.33481 27.17114 27672 ft 495 kts 144°
2026-05-05 00:24 44.29774 27.20889 28359 ft 500 kts 145°
2026-05-05 00:24 44.26950 27.23759 28876 ft 504 kts 145°
2026-05-05 00:24 44.24105 27.26647 29367 ft 507 kts 145°
2026-05-05 00:24 44.21237 27.29554 29802 ft 511 kts 146°
2026-05-05 00:25 44.19328 27.31487 30078 ft 513 kts 146°
2026-05-05 00:25 44.16436 27.34414 30551 ft 513 kts 146°
2026-05-05 00:25 44.13555 27.37327 31158 ft 510 kts 145°
2026-05-05 00:25 44.10703 27.40208 31849 ft 504 kts 145°
2026-05-05 00:26 44.07875 27.43061 32534 ft 500 kts 145°
2026-05-05 00:26 44.05072 27.45884 33155 ft 496 kts 145°
2026-05-05 00:26 44.02280 27.48693 33740 ft 494 kts 145°
2026-05-05 00:26 43.99502 27.51484 34236 ft 492 kts 145°
2026-05-05 00:27 43.96730 27.54265 34652 ft 491 kts 145°
2026-05-05 00:27 43.93894 27.56905 35035 ft 490 kts 149°
2026-05-05 00:27 43.90957 27.59333 35204 ft 495 kts 149°
2026-05-05 00:28 43.84944 27.64218 35314 ft 506 kts 149°
2026-05-05 00:28 43.78838 27.69204 35557 ft 512 kts 149°
2026-05-05 00:28 43.75775 27.71718 35778 ft 512 kts 149°
2026-05-05 00:29 43.72715 27.74231 36037 ft 511 kts 149°
2026-05-05 00:29 43.69699 27.76705 36327 ft 509 kts 148°
2026-05-05 00:29 43.66652 27.79200 36571 ft 509 kts 148°
2026-05-05 00:29 43.63602 27.81694 36728 ft 510 kts 148°
2026-05-05 00:30 43.60513 27.84151 36921 ft 511 kts 150°
2026-05-05 00:30 43.57307 27.86280 37132 ft 511 kts 154°
2026-05-05 00:30 43.54058 27.88285 37374 ft 511 kts 155°
2026-05-05 00:30 43.50810 27.90263 37584 ft 511 kts 155°
2026-05-05 00:31 43.47574 27.92231 38101 ft 503 kts 154°
2026-05-05 00:31 43.44418 27.94158 38853 ft 492 kts 154°
2026-05-05 00:31 43.41299 27.96074 39062 ft 492 kts 154°
2026-05-05 00:32 43.35003 27.99966 39052 ft 499 kts 153°
2026-05-05 00:32 43.28619 28.03916 39056 ft 506 kts 153°
2026-05-05 00:33 43.22165 28.07896 39057 ft 511 kts 153°
2026-05-05 00:33 43.15644 28.11905 39061 ft 516 kts 153°
2026-05-05 00:34 43.09075 28.15931 39065 ft 519 kts 153°
2026-05-05 00:34 43.02507 28.19948 39058 ft 521 kts 153°
2026-05-05 00:35 43.01387 28.20632 39058 ft 521 kts 153°
2026-05-05 00:35 42.88615 28.28411 39029 ft 507 kts 153°
2026-05-05 00:36 42.82274 28.32258 39045 ft 496 kts 153°
2026-05-05 00:36 42.79120 28.34171 38880 ft 493 kts 153°
2026-05-05 00:36 42.75964 28.36086 37695 ft 496 kts 154°
2026-05-05 00:36 42.72896 28.37942 36990 ft 483 kts 154°
2026-05-05 00:37 42.69858 28.39777 36244 ft 472 kts 154°
2026-05-05 00:37 42.66877 28.41575 35543 ft 466 kts 154°
2026-05-05 00:37 42.63885 28.43382 34783 ft 476 kts 155°
2026-05-05 00:37 42.60812 28.45237 33957 ft 491 kts 155°
2026-05-05 00:38 42.57642 28.47147 32941 ft 501 kts 155°
2026-05-05 00:38 42.54439 28.49072 31965 ft 504 kts 155°
2026-05-05 00:38 42.51223 28.51001 30981 ft 507 kts 154°
2026-05-05 00:38 42.47992 28.52937 30209 ft 506 kts 154°
2026-05-05 00:39 42.44787 28.54856 29440 ft 502 kts 154°
2026-05-05 00:39 42.41597 28.56763 28738 ft 498 kts 154°
2026-05-05 00:39 42.38483 28.58623 28090 ft 493 kts 154°
2026-05-05 00:39 42.35355 28.60490 27439 ft 489 kts 154°
2026-05-05 00:40 42.32257 28.62338 26788 ft 486 kts 154°
2026-05-05 00:40 42.29177 28.64174 26146 ft 482 kts 154°
2026-05-05 00:40 42.26115 28.65996 25475 ft 479 kts 154°
2026-05-05 00:41 42.17878 28.70892 23744 ft 472 kts 154°
2026-05-05 00:41 42.14896 28.72659 23435 ft 462 kts 154°
2026-05-05 00:41 42.11954 28.74175 23170 ft 446 kts 165°
2026-05-05 00:42 42.08903 28.74477 23008 ft 435 kts 185°
2026-05-05 00:42 42.05963 28.73670 22634 ft 428 kts 199°
2026-05-05 00:42 42.03286 28.72026 22239 ft 419 kts 214°
2026-05-05 00:42 42.00933 28.69801 21864 ft 411 kts 218°
2026-05-05 00:43 41.98630 28.67523 21463 ft 411 kts 218°
2026-05-05 00:43 41.96331 28.65238 21101 ft 411 kts 218°
2026-05-05 00:43 41.94025 28.62961 20804 ft 410 kts 218°
2026-05-05 00:43 41.91758 28.60741 20519 ft 408 kts 218°
2026-05-05 00:44 41.89461 28.58508 20200 ft 407 kts 217°
2026-05-05 00:44 41.87170 28.56295 19908 ft 405 kts 217°
2026-05-05 00:44 41.84890 28.54100 19646 ft 402 kts 217°
2026-05-05 00:44 41.82617 28.51917 19394 ft 400 kts 217°
2026-05-05 00:45 41.80361 28.49753 19134 ft 398 kts 217°
2026-05-05 00:45 41.78114 28.47599 18867 ft 397 kts 217°
2026-05-05 00:45 41.75873 28.45454 18605 ft 395 kts 217°
2026-05-05 00:45 41.73641 28.43319 18314 ft 393 kts 217°
2026-05-05 00:46 41.71423 28.41199 17867 ft 392 kts 217°
2026-05-05 00:46 41.69208 28.39082 17411 ft 389 kts 218°
2026-05-05 00:46 41.67016 28.36989 16969 ft 386 kts 217°
2026-05-05 00:46 41.64833 28.34909 16508 ft 384 kts 217°
2026-05-05 00:47 41.62662 28.32840 16061 ft 382 kts 217°
2026-05-05 00:47 41.60502 28.30784 15625 ft 380 kts 217°
2026-05-05 00:47 41.58350 28.28737 15181 ft 379 kts 217°
2026-05-05 00:47 41.56209 28.26702 14731 ft 377 kts 217°
2026-05-05 00:48 41.54070 28.24671 14294 ft 376 kts 217°
2026-05-05 00:48 41.51941 28.22650 13870 ft 376 kts 217°
2026-05-05 00:48 41.49813 28.20633 13364 ft 375 kts 217°
2026-05-05 00:48 41.47711 28.18641 12902 ft 374 kts 217°
2026-05-05 00:49 41.45593 28.16635 12438 ft 373 kts 217°
2026-05-05 00:49 41.43477 28.14634 11979 ft 372 kts 217°
2026-05-05 00:49 41.41369 28.12642 11518 ft 371 kts 217°
2026-05-05 00:49 41.39183 28.10891 11074 ft 367 kts 203°
2026-05-05 00:50 41.36731 28.10012 10678 ft 364 kts 185°
2026-05-05 00:50 41.34264 28.09960 10540 ft 346 kts 175°
2026-05-05 00:50 41.31906 28.10058 10387 ft 332 kts 176°
2026-05-05 00:50 41.29670 28.10116 10235 ft 314 kts 176°
2026-05-05 00:51 41.27524 28.10160 10103 ft 304 kts 176°
2026-05-05 00:51 41.25442 28.10217 9982 ft 293 kts 172°
2026-05-05 00:51 41.23518 28.10805 9837 ft 280 kts 155°
2026-05-05 00:51 41.21647 28.11710 9768 ft 293 kts 155°
2026-05-05 00:52 41.19702 28.12638 9606 ft 299 kts 155°
2026-05-05 00:52 41.17746 28.13549 9435 ft 297 kts 156°
2026-05-05 00:52 41.15808 28.14440 9278 ft 292 kts 156°
2026-05-05 00:52 41.13899 28.15310 9153 ft 288 kts 156°
2026-05-05 00:53 41.12009 28.16169 8993 ft 284 kts 156°
2026-05-05 00:53 41.10124 28.17025 8892 ft 289 kts 156°
2026-05-05 00:53 41.08211 28.17892 8752 ft 292 kts 156°
2026-05-05 00:53 41.06294 28.18757 8604 ft 290 kts 156°
2026-05-05 00:54 41.04387 28.19617 8464 ft 289 kts 156°
2026-05-05 00:54 41.02514 28.20460 8325 ft 287 kts 156°
2026-05-05 00:54 41.00629 28.21308 8182 ft 285 kts 156°
2026-05-05 00:54 40.98748 28.22155 7912 ft 288 kts 156°
2026-05-05 00:55 40.96964 28.23203 7714 ft 273 kts 136°
2026-05-05 00:55 40.95790 28.25035 7591 ft 255 kts 110°
2026-05-05 00:55 40.95180 28.27190 7471 ft 248 kts 97°
2026-05-05 00:55 40.94741 28.29400 7346 ft 249 kts 96°
2026-05-05 00:56 40.94312 28.31633 7220 ft 254 kts 96°
2026-05-05 00:56 40.93876 28.33908 7083 ft 255 kts 97°
2026-05-05 00:56 40.93436 28.36174 6933 ft 252 kts 97°
2026-05-05 00:56 40.93000 28.38405 6817 ft 249 kts 97°
2026-05-05 00:57 40.92568 28.40606 6678 ft 247 kts 97°
2026-05-05 00:57 40.92137 28.42801 6548 ft 247 kts 97°
2026-05-05 00:57 40.91704 28.44998 6413 ft 247 kts 97°
2026-05-05 00:57 40.91270 28.47193 6274 ft 247 kts 97°
2026-05-05 00:58 40.90836 28.49386 6139 ft 246 kts 98°
2026-05-05 00:58 40.90401 28.51574 6013 ft 246 kts 98°
2026-05-05 00:58 40.89969 28.53743 5776 ft 248 kts 98°
2026-05-05 00:58 40.89527 28.55966 5404 ft 252 kts 99°
2026-05-05 00:59 40.89163 28.58220 5022 ft 246 kts 86°
2026-05-05 00:59 40.89526 28.60392 5012 ft 247 kts 65°
2026-05-05 00:59 40.90119 28.62563 4991 ft 253 kts 67°
2026-05-05 00:59 40.90683 28.64760 4981 ft 251 kts 67°
2026-05-05 01:00 40.91242 28.66941 4991 ft 250 kts 66°
2026-05-05 01:00 40.92020 28.68912 4973 ft 239 kts 43°
2026-05-05 01:00 40.93333 28.70219 4985 ft 238 kts 27°
2026-05-05 01:00 40.94772 28.71258 4973 ft 228 kts 27°
2026-05-05 01:01 40.96097 28.72231 4961 ft 210 kts 27°
2026-05-05 01:01 40.97408 28.73062 4971 ft 212 kts 13°
2026-05-05 01:01 40.98898 28.73274 4990 ft 218 kts
2026-05-05 01:01 41.00402 28.73330 4975 ft 211 kts
2026-05-05 01:02 41.01814 28.73328 4957 ft 196 kts
2026-05-05 01:02 41.03141 28.73306 4902 ft 189 kts
2026-05-05 01:02 41.04426 28.73279 4621 ft 182 kts
2026-05-05 01:02 41.05648 28.73250 4381 ft 169 kts
2026-05-05 01:03 41.06813 28.73224 4157 ft 167 kts
2026-05-05 01:03 41.07975 28.73197 3945 ft 168 kts
2026-05-05 01:03 41.09144 28.73171 3688 ft 167 kts
2026-05-05 01:03 41.10293 28.73144 3511 ft 165 kts
2026-05-05 01:04 41.11452 28.73117 3290 ft 168 kts
2026-05-05 01:04 41.13782 28.73063 2814 ft 163 kts 360°
2026-05-05 01:04 41.14845 28.73040 2567 ft 143 kts 359°
2026-05-05 01:05 41.15800 28.73018 2408 ft 132 kts 358°
2026-05-05 01:05 41.16708 28.72997 2249 ft 132 kts 358°
2026-05-05 01:05 41.17629 28.72975 2063 ft 133 kts 358°
2026-05-05 01:05 41.18545 28.72955 1878 ft 131 kts 357°
2026-05-05 01:06 41.19457 28.72932 1696 ft 132 kts 358°
2026-05-05 01:06 41.20387 28.72911 1515 ft 135 kts 357°
2026-05-05 01:06 41.21327 28.72890 1331 ft 136 kts 358°
2026-05-05 01:06 41.22276 28.72867 1141 ft 137 kts 358°
2026-05-05 01:07 41.23239 28.72849 961 ft 138 kts 358°
2026-05-05 01:07 41.24203 28.72825 813 ft 141 kts 357°
2026-05-05 01:07 41.25196 28.72800 588 ft 141 kts 357°
2026-05-05 01:07 41.26146 28.72781 409 ft 137 kts 356°
2026-05-05 01:08 41.27077 28.72756 335 ft 125 kts
2026-05-05 01:08 41.27764 28.72738 335 ft 72 kts 358°
2026-05-05 01:08 41.28135 28.72732 337 ft 51 kts 359°
2026-05-05 01:08 41.28410 28.72837 333 ft 36 kts 29°
2026-05-05 01:09 41.28383 28.72966 336 ft 19 kts 178°
2026-05-05 01:09 41.28252 28.72970 338 ft 19 kts 178°
2026-05-05 01:09 41.28110 28.72975 334 ft 21 kts 179°
2026-05-05 01:09 41.27965 28.72977 338 ft 21 kts 179°
2026-05-05 01:10 41.27820 28.72978 334 ft 21 kts 179°
2026-05-05 01:10 41.27675 28.72972 334 ft 21 kts 183°
2026-05-05 01:10 41.27531 28.72975 337 ft 21 kts 176°
2026-05-05 01:10 41.27340 28.72978 334 ft 31 kts 179°
2026-05-05 01:11 41.27119 28.72983 335 ft 30 kts 179°
2026-05-05 01:11 41.27043 28.73118 339 ft 28 kts 91°
2026-05-05 01:11 41.27046 28.73485 335 ft 42 kts 89°
2026-05-05 01:11 41.27052 28.73869 339 ft 41 kts 88°
2026-05-05 01:12 41.26948 28.74021 337 ft 22 kts 181°
2026-05-05 01:12 41.26794 28.74019 334 ft 22 kts 175°
2026-05-05 01:12 41.26743 28.74111 335 ft 7 kts 92°
2026-05-05 01:12 41.26743 28.74122 334 ft 0 kts 91°